This is the latest recevied weather packets stored in our database for station/object KC1OEK-13. If no packets are shown the sender has not sent any weather packets the latest 10 day(s).
| Time | Temp. | Humidity | Pressure | Rain* | Wind** | Luminosity | Snow |
|---|---|---|---|---|---|---|---|
| 1787789908 | 18.89° C | 89% | 1019.9 hPa | 0 mm | - | 0 W/m² | - |
| 1787789606 | 18.89° C | 90% | 1019.9 hPa | 0 mm | - | 0 W/m² | - |
| 1787789301 | 18.89° C | 89% | 1019.9 hPa | 0 mm | - | 0 W/m² | - |
| 1787788996 | 19.44° C | 88% | 1020 hPa | 0 mm | - | 0 W/m² | - |
| 1787788694 | 19.44° C | 89% | 1019.8 hPa | 0 mm | - | 0 W/m² | - |
| 1787788389 | 20° C | 87% | 1019.9 hPa | 0 mm | - | 0 W/m² | - |
| 1787788083 | 20° C | 84% | 1019.8 hPa | 0 mm | - | 1 W/m² | - |
| 1787787779 | 20.56° C | 83% | 1019.8 hPa | 0 mm | - | 1 W/m² | - |
| 1787787477 | 20.56° C | 84% | 1020 hPa | 0 mm | - | 2 W/m² | - |
| 1787787177 | 20.56° C | 84% | 1019.7 hPa | 0 mm | - | 3 W/m² | - |
| 1787786871 | 20.56° C | 84% | 1019.8 hPa | 0 mm | - | 5 W/m² | - |
| 1787786567 | 20.56° C | 83% | 1019.8 hPa | 0 mm | - | 9 W/m² | - |
| 1787786262 | 21.11° C | 83% | 1019.6 hPa | 0 mm | - | 13 W/m² | - |
| 1787785958 | 21.67° C | 80% | 1019.4 hPa | 0 mm | - | 16 W/m² | - |
| 1787785653 | 21.67° C | 78% | 1019.8 hPa | 0 mm | - | 19 W/m² | - |
| 1787785352 | 22.22° C | 78% | 1019.8 hPa | 0 mm | - | 23 W/m² | - |
| 1787785051 | 22.78° C | 76% | 1019.7 hPa | 0 mm | - | 27 W/m² | - |
| 1787784746 | 22.78° C | 75% | 1019.6 hPa | 0 mm | - | 30 W/m² | - |
| 1787784446 | 23.33° C | 73% | 1019.8 hPa | 0 mm | - | 34 W/m² | - |
| 1787784140 | 23.89° C | 68% | 1019.6 hPa | 0 mm | - | 36 W/m² | - |
| 1787783836 | 24.44° C | 66% | 1019.7 hPa | 0 mm | - | 44 W/m² | - |
| 1787783531 | 24.44° C | 66% | 1019.6 hPa | 0 mm | - | 53 W/m² | - |
| 1787783226 | 25° C | 65% | 1019.9 hPa | 0 mm | - | 57 W/m² | - |
| 1787782922 | 26.67° C | 62% | 1019.8 hPa | 0 mm | - | 55 W/m² | - |
| 1787782620 | 26.67° C | 60% | 1019.7 hPa | 0 mm | - | 93 W/m² | - |
* Rain latest hour (hover to see other rain measurements)
** Current wind speed in m/s (hover to see current wind gust speed)